Weather History for Albany, GA

Change the Weather History Date:

Friday, April 12, 2013

  Actual Average Record
Temperature  
Mean Temperature 69 °F 65 °F  
Max Temperature 79 °F 78 °F 88 °F (1948)
Min Temperature 59 °F 53 °F 33 °F (1989)
Degree Days  
Heating Degree Days 0 3  
Month to date heating degree days 42 40  
Since 1 July heating degree days 1666 1809  
Cooling Degree Days 4 3  
Month to date cooling degree days 28 28  
Year to date cooling degree days 67 66  
Growing Degree Days 20 (Base 50)    
Moisture  
Dew Point 62 °F    
Average Humidity 64    
Maximum Humidity 97    
Minimum Humidity 30    
Precipitation  
Precipitation T in - 0.15 in (2008)
Month to date precipitation 0.28  
Year to date precipitation 13.20  
Sea Level Pressure  
Sea Level Pressure 29.82 in    
Wind  
Wind Speed 9 mph (WSW)    
Max Wind Speed 18 mph    
Max Gust Speed 24 mph    
Visibility 9 miles    
Events Rain , Thunderstorm    
T = Trace of Precipitation, MM = Missing Value Source: NWS Daily Summary

Daily Weather History Graph

Daily Weather History Graph

Search for Another Location

Airport:

Trip Planner

Search our weather history database for the weather conditions in past years. The results will help you decide how hot, cold, wet, or windy it might be!

Date:

Astronomy

Apr. 12, 2013 Rise Set
Actual Time 7:11 AM EDT 8:03 PM EDT
Civil Twilight 6:46 AM EDT 8:28 PM EDT
Nautical Twilight 6:17 AM EDT 8:58 PM EDT
Astronomical Twilight 5:47 AM EDT 9:28 PM EDT
Moon 8:28 AM EDT (4/12) 10:24 PM EDT (4/12)
Length of Visible Light 13h 41m
Length of Day
12h 52m
Waxing Crescent, 5% of the Moon is Illuminated
Apr 12
Waxing Crescent
Apr 18
First Quarter
Apr 25
Full
May 2
Last Quarter
May 9
New

Hourly Weather History & Observations

Time (EDT) Temp. Dew Point Humidity Pressure Visibility Wind Dir Wind Speed Gust Speed Precip Events Conditions
12:38 AM 71.6 °F 69.8 °F 94% 29.84 in 2.5 mi SSW 11.5 mph - 0.14 in Rain Heavy Rain
12:40 AM 71.6 °F 69.8 °F 94% 29.82 in 2.0 mi South 13.8 mph 23.0 mph 0.17 in Rain , Thunderstorm Heavy Thunderstorms and Rain
12:53 AM 71.1 °F 69.1 °F 93% 29.80 in 4.0 mi South 8.1 mph - 0.20 in Rain , Thunderstorm Thunderstorms and Rain
1:06 AM 71.6 °F 69.8 °F 94% 29.81 in 8.0 mi South 12.7 mph - 0.00 in   Overcast
1:19 AM 71.6 °F 69.8 °F 94% 29.81 in 7.0 mi South 12.7 mph 19.6 mph 0.00 in   Overcast
1:26 AM 71.6 °F 69.8 °F 94% 29.80 in 8.0 mi South 13.8 mph 19.6 mph 0.00 in   Overcast
1:53 AM 71.1 °F 69.1 °F 93% 29.77 in 8.0 mi South 9.2 mph - 0.00 in   Mostly Cloudy
2:53 AM 70.0 °F 68.0 °F 93% 29.75 in 10.0 mi South 9.2 mph - N/A   Mostly Cloudy
3:02 AM 69.8 °F 68.0 °F 94% 29.76 in 10.0 mi South 8.1 mph - N/A   Mostly Cloudy
3:46 AM 69.8 °F 68.0 °F 94% 29.75 in 8.0 mi SSW 5.8 mph - N/A   Mostly Cloudy
3:53 AM 69.1 °F 68.0 °F 96% 29.75 in 8.0 mi SSW 4.6 mph - N/A   Scattered Clouds
4:32 AM 69.8 °F 68.0 °F 94% 29.76 in 6.0 mi WSW 4.6 mph - N/A   Mostly Cloudy
4:53 AM 69.1 °F 68.0 °F 96% 29.75 in 6.0 mi SSW 5.8 mph - N/A   Overcast
5:04 AM 69.8 °F 69.8 °F 100% 29.75 in 7.0 mi SSW 6.9 mph - N/A   Overcast
5:21 AM 69.8 °F 69.8 °F 100% 29.75 in 8.0 mi SSW 8.1 mph - N/A   Overcast
5:50 AM 71.6 °F 69.8 °F 94% 29.75 in 9.0 mi South 9.2 mph - N/A   Mostly Cloudy
5:53 AM 71.1 °F 69.1 °F 93% 29.75 in 9.0 mi South 8.1 mph - N/A   Mostly Cloudy
6:19 AM 71.6 °F 69.8 °F 94% 29.75 in 8.0 mi SSW 8.1 mph - N/A   Mostly Cloudy
6:26 AM 71.6 °F 69.8 °F 94% 29.75 in 8.0 mi SSW 8.1 mph - N/A   Overcast
6:33 AM 71.6 °F 69.8 °F 94% 29.75 in 8.0 mi SSW 6.9 mph - N/A   Mostly Cloudy
6:41 AM 71.6 °F 69.8 °F 94% 29.75 in 8.0 mi SSW 6.9 mph - N/A   Mostly Cloudy
6:53 AM 71.1 °F 69.1 °F 93% 29.75 in 8.0 mi South 9.2 mph - N/A   Scattered Clouds
7:22 AM 71.6 °F 69.8 °F 94% 29.76 in 8.0 mi SSW 6.9 mph - N/A   Overcast
7:53 AM 71.1 °F 69.1 °F 93% 29.78 in 7.0 mi SSW 9.2 mph - N/A   Overcast
8:53 AM 69.1 °F 64.9 °F 87% 29.80 in 9.0 mi NW 17.3 mph 21.9 mph N/A   Overcast
9:00 AM 66.2 °F 64.4 °F 94% 29.81 in 10.0 mi NW 10.4 mph - N/A   Overcast
9:07 AM 66.2 °F 64.4 °F 94% 29.81 in 10.0 mi NW 10.4 mph - N/A   Overcast
9:53 AM 68.0 °F 63.0 °F 84% 29.81 in 10.0 mi NW 9.2 mph - N/A   Mostly Cloudy
10:00 AM 69.8 °F 62.6 °F 78% 29.83 in 10.0 mi NW 11.5 mph - N/A   Scattered Clouds
10:09 AM 68.0 °F 62.6 °F 83% 29.83 in 10.0 mi NNW 9.2 mph - N/A   Mostly Cloudy
10:53 AM 66.0 °F 61.0 °F 84% 29.86 in 10.0 mi WNW 8.1 mph - N/A   Overcast
11:24 AM 64.4 °F 60.8 °F 88% 29.88 in 10.0 mi NW 10.4 mph 18.4 mph N/A   Overcast
11:48 AM 64.4 °F 60.8 °F 88% 29.88 in 10.0 mi NW 15.0 mph 20.7 mph N/A   Overcast
11:53 AM 64.9 °F 60.1 °F 84% 29.88 in 10.0 mi NW 13.8 mph - N/A   Overcast
12:04 PM 64.4 °F 59.0 °F 83% 29.89 in 10.0 mi NW 10.4 mph - N/A   Overcast
12:51 PM 68.0 °F 57.2 °F 68% 29.89 in 10.0 mi WNW 8.1 mph - N/A   Overcast
12:53 PM 68.0 °F 57.0 °F 68% 29.89 in 10.0 mi WNW 10.4 mph - N/A   Overcast
1:53 PM 73.0 °F 54.0 °F 51% 29.87 in 10.0 mi NNW 6.9 mph 18.4 mph N/A   Clear
2:53 PM 75.9 °F 53.1 °F 45% 29.86 in 10.0 mi NW 8.1 mph - N/A   Clear
3:53 PM 78.1 °F 48.0 °F 35% 29.83 in 10.0 mi WNW 15.0 mph 21.9 mph N/A   Clear
4:53 PM 78.1 °F 44.1 °F 30% 29.83 in 10.0 mi NW 12.7 mph - N/A   Clear
5:53 PM 77.0 °F 44.1 °F 31% 29.86 in 10.0 mi WNW 9.2 mph - N/A   Clear
6:53 PM 75.0 °F 43.0 °F 32% 29.87 in 10.0 mi West 4.6 mph - N/A   Clear
7:53 PM 71.1 °F 44.1 °F 38% 29.87 in 10.0 mi WNW 8.1 mph - N/A   Clear
8:53 PM 66.9 °F 44.1 °F 44% 29.89 in 10.0 mi WNW 6.9 mph - N/A   Clear
9:53 PM 64.0 °F 45.0 °F 50% 29.92 in 10.0 mi NW 5.8 mph - N/A   Clear
10:53 PM 61.0 °F 46.0 °F 58% 29.94 in 10.0 mi NW 5.8 mph - N/A   Clear
11:53 PM 60.1 °F 46.0 °F 60% 29.95 in 10.0 mi NW 8.1 mph - N/A   Clear